DEBRISSAT-2 (43680 NORAD) Tracking and Keplerian Element Data

This shows tracking and keplerian element data for the satellite.

Feedback or suggestion? Click here.




ElementValue
Catalog43680
NameDEBRISSAT-2
Epoch Orbit2313
Epoch Day320.20114396
Epoch Year2018
RAAN340.0512
Inclination51.6459
Eccentricity0.0004636
Argument of Perigee62.5895
Mean Anonmoly297.5562
Mean Motion15.55867329
Decay Rate0.00012448
L11 43680U 98067PR 18320.20114396 .00012448 00000-0 18303-3 0 9998
L22 43680 51.6459 340.0512 0004636 62.5895 297.5562 15.55867329 23138

Live tracking and technical data element details for DEBRISSAT-2 (NORAD 43680). DEBRISSAT-2 can be tracked NOW for your location showing map with azimuth and elevation plus other details from your city location.

Track the satellite on the map from your city or location and see movement details for azimuth, elevation, latitude, longitude, range, height, and movement on the map or in text.







IsCatalogInMostPopularTable: catalog: 43680, numindb: 13
Update: records affected: 1



GetName: 43680 DEBRISSAT-2

Hit Count: updated at: Sat, 17 Nov 2018 02:05:40 GMT